Change the Weather History Date:

Wednesday, October 16, 2013

  Actual Average (KVPZ) Record (KVPZ)
Temperature  
Mean Temperature 50 °F 52 °F  
Max Temperature 96 °F 63 °F 79 °F (1998)
Min Temperature 42 °F 42 °F 34 °F (2012)
Degree Days  
Heating Degree Days 14 13  
Month to date heating degree days 174  
Since 1 July heating degree days 304  
Cooling Degree Days 0 0  
Month to date cooling degree days 11  
Year to date cooling degree days 713  
Moisture  
Dew Point 45 °F    
Average Humidity 84    
Maximum Humidity 95    
Minimum Humidity 75    
Precipitation  
Precipitation 0.00 in 0.12 in 1.09 in (2001)
Month to date precipitation 1.66  
Year to date precipitation 30.41  
Sea Level Pressure  
Sea Level Pressure 29.91 in    
Wind  
Wind Speed 8 mph (WSW)    
Max Wind Speed 14 mph    
Max Gust Speed 22 mph    
Visibility 10 miles    
Events      
T = Trace of Precipitation, MM = Missing Value Source: NWS Daily Summary

Daily Weather History Graph

Daily Weather History Graph

Search for Another Location

Airport or City:

Trip Planner

Search our weather history database for the weather conditions in past years. The results will help you decide how hot, cold, wet, or windy it might be!

Date:

Astronomy

Oct. 16, 2013 Rise Set
Actual Time 6:59 AM CDT 6:03 PM CDT
Civil Twilight 6:31 AM CDT 6:31 PM CDT
Nautical Twilight 5:59 AM CDT 7:03 PM CDT
Astronomical Twilight 5:27 AM CDT 7:35 PM CDT
Moon 4:44 PM CDT (10/16) 4:25 AM CDT (10/16)
Length of Visible Light 11h 59m
Length of Day
11h 03m
Waxing Gibbous, 94% of the Moon is Illuminated
Oct 16
Waxing Gibbous
Oct 18
Full
Oct 26
Last Quarter
Nov 3
New
Nov 9
First Quarter

Hourly Weather History & Observations

Time (CDT) Temp. Windchill Dew Point Humidity Pressure Visibility Wind Dir Wind Speed Gust Speed Precip Events Conditions
12:15 AM 59.0 °F - 55.8 °F 89% 29.87 in 10.0 mi West 10.4 mph - N/A   Overcast
12:35 AM 57.2 °F - 50.9 °F 79% 29.88 in 10.0 mi West 9.2 mph - N/A   Overcast
12:55 AM 55.6 °F - 49.5 °F 80% 29.88 in 10.0 mi West 8.1 mph - N/A   Mostly Cloudy
1:15 AM 54.1 °F - 48.7 °F 82% 29.88 in 10.0 mi West 5.8 mph - N/A   Scattered Clouds
1:35 AM 53.1 °F - 48.4 °F 84% 29.88 in 10.0 mi West 4.6 mph - N/A   Clear
1:55 AM 52.0 °F - 47.8 °F 86% 29.88 in 10.0 mi West 4.6 mph - N/A   Clear
2:15 AM 51.1 °F - 47.7 °F 88% 29.88 in 10.0 mi West 5.8 mph - N/A   Clear
2:35 AM 50.9 °F - 47.3 °F 87% 29.88 in 10.0 mi West 8.1 mph - N/A   Clear
2:55 AM 50.0 °F - 46.2 °F 87% 29.89 in 10.0 mi West 6.9 mph - N/A   Clear
3:15 AM 49.3 °F - 45.5 °F 87% 29.88 in 10.0 mi West 5.8 mph - N/A   Clear
3:35 AM 47.8 °F - 44.8 °F 89% 29.88 in 10.0 mi West 5.8 mph - N/A   Clear
3:55 AM 46.8 °F - 44.2 °F 91% 29.88 in 10.0 mi WSW 4.6 mph - N/A   Clear
4:15 AM 45.7 °F 43.4 °F 43.9 °F 93% 29.88 in 10.0 mi WSW 4.6 mph - N/A   Clear
4:35 AM 45.1 °F 42.8 °F 43.3 °F 93% 29.88 in 10.0 mi WSW 4.6 mph - N/A   Clear
4:55 AM 45.0 °F 41.2 °F 43.0 °F 93% 29.89 in 10.0 mi WSW 6.9 mph - N/A   Clear
5:15 AM 45.0 °F 41.8 °F 43.0 °F 93% 29.89 in 10.0 mi WSW 5.8 mph - N/A   Clear
5:35 AM 44.4 °F 41.2 °F 42.6 °F 93% 29.88 in 10.0 mi WSW 5.8 mph - N/A   Clear
5:55 AM 43.7 °F 40.3 °F 42.3 °F 95% 29.89 in 10.0 mi WSW 5.8 mph - N/A   Clear
6:15 AM 43.3 °F 39.2 °F 42.1 °F 95% 29.89 in 10.0 mi SW 6.9 mph - N/A   Clear
6:35 AM 43.0 °F 38.8 °F 41.5 °F 95% 29.89 in 10.0 mi SW 6.9 mph - N/A   Clear
6:55 AM 42.6 °F 38.4 °F 41.2 °F 95% 29.90 in 10.0 mi SW 6.9 mph - N/A   Clear
7:15 AM 42.8 °F 39.3 °F 41.0 °F 93% 29.90 in 10.0 mi SW 5.8 mph - N/A   Clear
7:35 AM 43.0 °F 38.2 °F 41.4 °F 94% 29.91 in 10.0 mi SW 8.1 mph - N/A   Scattered Clouds
7:55 AM 44.2 °F 39.2 °F 42.3 °F 93% 29.91 in 10.0 mi SW 9.2 mph - N/A   Overcast
8:15 AM 45.1 °F 41.4 °F 42.8 °F 91% 29.91 in 10.0 mi WSW 6.9 mph - N/A   Overcast
8:35 AM 45.7 °F 41.5 °F 43.2 °F 91% 29.91 in 10.0 mi SW 8.1 mph - N/A   Overcast
8:55 AM 46.0 °F 41.9 °F 43.7 °F 92% 29.91 in 10.0 mi SW 8.1 mph - N/A   Overcast
9:15 AM 46.6 °F - 43.9 °F 90% 29.91 in 10.0 mi SW 8.1 mph - N/A   Overcast
9:35 AM 47.1 °F - 44.1 °F 89% 29.92 in 10.0 mi SW 8.1 mph - N/A   Overcast
9:55 AM 47.5 °F - 44.4 °F 89% 29.92 in 10.0 mi SW 10.4 mph - N/A   Overcast
10:15 AM 48.0 °F - 44.4 °F 87% 29.93 in 10.0 mi SW 11.5 mph - N/A   Overcast
10:35 AM 48.4 °F - 44.4 °F 86% 29.93 in 10.0 mi SW 10.4 mph - N/A   Overcast
10:55 AM 48.6 °F - 44.8 °F 87% 29.93 in 10.0 mi SW 9.2 mph - N/A   Overcast
11:15 AM 49.3 °F - 45.0 °F 85% 29.93 in 10.0 mi SW 11.5 mph 17.3 mph N/A   Overcast
11:35 AM 50.0 °F - 45.0 °F 83% 29.93 in 10.0 mi SW 13.8 mph 21.9 mph N/A   Overcast
11:55 AM 50.4 °F - 45.1 °F 82% 29.93 in 10.0 mi SW 12.7 mph 18.4 mph N/A   Overcast
12:15 PM 50.5 °F - 45.0 °F 81% 29.93 in 10.0 mi WSW 12.7 mph - N/A   Overcast
12:35 PM 50.7 °F - 44.8 °F 80% 29.92 in 10.0 mi WSW 12.7 mph - N/A   Overcast
12:55 PM 51.1 °F - 45.3 °F 81% 29.92 in 10.0 mi WSW 11.5 mph - N/A   Overcast
1:15 PM 51.4 °F - 45.1 °F 79% 29.92 in 10.0 mi WSW 11.5 mph - N/A   Overcast
1:35 PM 51.8 °F - 45.3 °F 79% 29.91 in 10.0 mi SW 12.7 mph - N/A   Overcast
1:55 PM 52.0 °F - 45.3 °F 78% 29.91 in 10.0 mi SW 11.5 mph - N/A   Overcast
2:15 PM 52.2 °F - 45.1 °F 77% 29.91 in 10.0 mi WSW 10.4 mph 18.4 mph N/A   Overcast
2:35 PM 52.2 °F - 45.5 °F 78% 29.91 in 10.0 mi WSW 10.4 mph - N/A   Overcast
2:55 PM 52.7 °F - 45.5 °F 76% 29.91 in 10.0 mi WSW 10.4 mph - N/A   Overcast
3:15 PM 52.9 °F - 45.3 °F 75% 29.91 in 10.0 mi WSW 11.5 mph - N/A   Overcast
3:35 PM 52.7 °F - 45.3 °F 76% 29.90 in 10.0 mi WSW 9.2 mph - N/A   Overcast
3:55 PM 52.9 °F - 45.3 °F 75% 29.90 in 10.0 mi WSW 10.4 mph - N/A   Overcast
4:15 PM 52.9 °F - 45.5 °F 76% 29.90 in 10.0 mi SW 8.1 mph - N/A   Overcast
4:35 PM 52.7 °F - 45.9 °F 78% 29.90 in 10.0 mi SW 6.9 mph - N/A   Overcast
4:55 PM 52.7 °F - 46.2 °F 79% 29.90 in 10.0 mi SW 6.9 mph - N/A   Overcast
5:15 PM 52.9 °F - 46.2 °F 78% 29.90 in 10.0 mi SW 6.9 mph - N/A   Overcast
5:35 PM 52.7 °F - 46.4 °F 79% 29.91 in 10.0 mi WSW 5.8 mph - N/A   Overcast
5:55 PM 52.7 °F - 45.9 °F 78% 29.91 in 10.0 mi West 6.9 mph - N/A   Overcast
6:15 PM 52.7 °F - 45.5 °F 76% 29.92 in 10.0 mi WSW 4.6 mph - N/A   Overcast
6:35 PM 52.5 °F - 45.7 °F 78% 29.93 in 10.0 mi WSW 5.8 mph - N/A   Overcast
6:55 PM 52.0 °F - 45.9 °F 80% 29.93 in 10.0 mi WSW 3.5 mph - N/A   Overcast
7:15 PM 52.0 °F - 46.0 °F 80% 29.93 in 10.0 mi WSW 3.5 mph - N/A   Overcast
7:35 PM 51.8 °F - 46.4 °F 82% 29.93 in 10.0 mi Calm Calm - N/A   Overcast
7:55 PM 51.8 °F - 46.4 °F 82% 29.93 in 10.0 mi Calm Calm - N/A   Overcast
8:15 PM 51.3 °F - 46.9 °F 85% 29.94 in 10.0 mi SW 3.5 mph - N/A   Overcast
8:35 PM 51.1 °F - 46.9 °F 86% 29.94 in 10.0 mi SW 3.5 mph - N/A   Overcast
8:55 PM 51.3 °F - 46.6 °F 84% 29.95 in 10.0 mi WSW 6.9 mph - N/A   Overcast
9:15 PM 51.3 °F - 45.9 °F 82% 29.95 in 10.0 mi WSW 8.1 mph - N/A   Overcast
9:35 PM 51.3 °F - 45.5 °F 81% 29.95 in 10.0 mi WSW 5.8 mph - N/A   Overcast
9:55 PM 51.3 °F - 45.5 °F 81% 29.95 in 10.0 mi WSW 6.9 mph - N/A   Overcast
10:15 PM 51.1 °F - 45.5 °F 81% 29.95 in 10.0 mi WSW 6.9 mph - N/A   Overcast
10:35 PM 50.9 °F - 45.5 °F 82% 29.95 in 10.0 mi WSW 5.8 mph - N/A   Overcast
10:55 PM 50.9 °F - 45.5 °F 82% 29.95 in 10.0 mi WSW 4.6 mph - N/A   Overcast
11:15 PM 50.5 °F - 45.5 °F 83% 29.94 in 10.0 mi WSW 5.8 mph - N/A   Overcast
11:35 PM 50.4 °F - 45.5 °F 83% 29.94 in 10.0 mi WSW 5.8 mph - N/A   Overcast
11:55 PM 50.4 °F - 45.5 °F 83% 29.94 in 10.0 mi WSW 5.8 mph - N/A   Overcast